QPF
0.00 0.00 0.00 0.00 0.00 0.00 0.00 0.00 0.00 0.00 0.00 0.00 0.00 0.00 0.00 0.00 0.00 0.00 0.00 0.00 0.00 0.00 0.01 0.02 0.05 0.04 0.05
0.00 0.00 0.00 0.00 0.00 0.00 0.00 0.00 0.00 0.00 0.00 0.00 0.00 0.00 0.00 0.00 0.00 0.00 0.00 0.00 0.00 0.01 0.01 0.01 0.01 0.02 0.03
0.00 0.00 0.00 0.00 0.00 0.00 0.00 0.00 0.00 0.00 0.00 0.00 0.00 0.00 0.00 0.00 0.00 0.00 0.00 0.00 0.00 0.00 0.00 0.00 0.01 0.00 0.01
0.00 0.00 0.00 0.00 0.00 0.00 0.00 0.00 0.00 0.00 0.00 0.00 0.00 0.00 0.00 0.00 0.00 0.00 0.00 0.00 0.00 0.00 0.00 0.00 0.01 0.01 0.01
0.00 0.01 0.01 0.00 0.00 0.00 0.00 0.00 0.00 0.00 0.00 0.00 0.00 0.00 0.00 0.00 0.00 0.00 0.00 0.00 0.00 0.00 0.00 0.00 0.01 0.01 0.01
0.02 0.01 0.00 0.00 0.00 0.00 0.00 0.00 0.01 0.00 0.00 0.00 0.00 0.00 0.00 0.00 0.00 0.00 0.00 0.00 0.00 0.00 0.00 0.01 0.01 0.01 0.01
0.00 0.00 0.00 0.00 0.00 0.00 0.01 0.02 0.01 0.00 0.00 0.00 0.00 0.00 0.00 0.00 0.00 0.00 0.00 0.00 0.00 0.00 0.00 0.00 0.00 0.01 0.01
0.00 0.00 0.00 0.00 0.01 0.04 0.01 0.00 0.00 0.00 0.00 0.00 0.00 0.00 0.00 0.00 0.00 0.00 0.00 0.00 0.00 0.00 0.00 0.00 0.00 0.01 0.01
0.00 0.00 0.00 0.00 0.00 0.00 0.00 0.00 0.00 0.00 0.00 0.00 0.00 0.00 0.00 0.00 0.00 0.00 0.00 0.00 0.00 0.00 0.00 0.00 0.00 0.00 0.01
0.00 0.00 0.00 0.00 0.00 0.00 0.00 0.01 0.01 0.01 0.00 0.02 0.01 0.01 0.02 0.00 0.00 0.00 0.00 0.00 0.00 0.00 0.00 0.00 0.00 0.00 0.01
0.00 0.00 0.00 0.00 0.00 0.00 0.00 0.01 0.04 0.02 0.00 0.03 0.05 0.00 0.03 0.00 0.00 0.00 0.00 0.00 0.00 0.00 0.00 0.00 0.00 0.01 0.05
0.00 0.00 0.00 0.00 0.00 0.00 0.00 0.00 0.00 0.01 0.00 0.01 0.08 0.02 0.04 0.02 0.00 0.00 0.00 0.00 0.00 0.00 0.00 0.00 0.00 0.00 0.01
0.00 0.00 0.00 0.00 0.00 0.00 0.00 0.00 0.00 0.00 0.00 0.00 0.02 0.03 0.04 0.03 0.02 0.00 0.00 0.00 0.00 0.00 0.00 0.00 0.00 0.01 0.01
0.00 0.00 0.00 0.00 0.00 0.00 0.00 0.00 0.00 0.00 0.00 0.00 0.00 0.01 0.04 0.01 0.02 0.02 0.00 0.00 0.00 0.00 0.00 0.00 0.00 0.00 0.00
0.00 0.01 0.00 0.00 0.00 0.00 0.00 0.01 0.02 0.00 0.00 0.00 0.00 0.00 0.00 0.00 0.02 0.00 0.00 0.00 0.00 0.00 0.00 0.00 0.00 0.00 0.00
0.00 0.01 0.01 0.00 0.00 0.00 0.00 0.00 0.01 0.00 0.00 0.00 0.00 0.01 0.00 0.00 0.00 0.01 0.01 0.00 0.00 0.00 0.00 0.01 0.01 0.00 0.00
0.01 0.00 0.01 0.01 0.00 0.00 0.00 0.00 0.00 0.00 0.00 0.00 0.01 0.03 0.03 0.01 0.00 0.00 0.02 0.02 0.01 0.01 0.00 0.00 0.02 0.00 0.00
MSLP
1019.06 1018.64 1018.19 1017.63 1017.13 1016.79 1016.21 1015.73 1015.18 1014.57 1014.03 1013.39 1012.77 1012.12 1011.59 1011.07 1010.70 1010.07 1009.60 1009.24 1008.90 1008.53 1008.12 1007.74 1007.51 1007.18 1006.82
1018.82 1018.44 1018.07 1017.52 1016.91 1016.37 1015.75 1015.09 1014.47 1013.80 1013.22 1012.69 1012.12 1011.57 1011.01 1010.40 1009.76 1009.20 1008.71 1008.24 1007.79 1007.51 1007.19 1006.79 1006.41 1006.15 1005.93
1018.55 1018.26 1017.72 1017.26 1016.42 1015.81 1015.12 1014.44 1013.85 1013.30 1012.84 1012.26 1011.64 1010.90 1010.15 1009.46 1008.73 1008.07 1007.58 1007.21 1006.81 1006.37 1006.10 1005.83 1005.45 1005.20 1004.95
1018.41 1017.90 1017.37 1016.58 1016.11 1015.43 1014.41 1014.06 1013.36 1012.89 1012.40 1011.47 1010.92 1010.07 1009.41 1008.69 1008.22 1007.61 1007.09 1006.50 1005.90 1005.34 1004.86 1004.54 1004.38 1004.05 1003.82
1017.81 1017.07 1016.63 1016.27 1015.79 1015.09 1014.34 1013.58 1012.79 1012.29 1011.47 1010.68 1010.30 1009.49 1008.84 1008.03 1007.46 1006.80 1006.20 1005.35 1004.74 1004.18 1003.70 1003.28 1002.99 1002.68 1002.44
1017.12 1016.74 1016.02 1015.70 1015.30 1014.81 1014.03 1013.29 1011.70 1011.59 1011.10 1009.91 1009.74 1008.53 1007.98 1007.33 1006.53 1005.63 1004.89 1004.25 1003.58 1003.18 1002.80 1002.26 1001.80 1001.48 1001.13
1016.54 1016.10 1015.39 1015.08 1014.70 1014.03 1013.27 1012.56 1011.67 1010.84 1010.83 1009.47 1008.52 1007.56 1007.06 1006.12 1005.58 1004.69 1003.84 1003.31 1002.71 1002.14 1001.61 1001.15 1000.70 1000.29 999.96
1015.87 1015.24 1014.73 1014.07 1013.69 1013.11 1012.39 1011.81 1010.81 1010.13 1010.08 1009.06 1007.53 1006.66 1005.93 1005.34 1004.47 1003.73 1002.96 1002.24 1001.48 1000.90 1000.46 1000.14 999.56 998.97 998.50
1015.08 1014.54 1013.88 1013.32 1012.73 1012.28 1011.88 1011.47 1010.24 1009.36 1009.17 1008.64 1007.24 1006.29 1005.27 1004.08 1003.43 1002.73 1002.10 1001.34 1001.03 1000.25 999.76 999.03 998.44 997.73 997.17
1014.53 1014.06 1013.53 1013.05 1012.39 1012.15 1011.64 1011.32 1010.51 1008.92 1008.13 1008.19 1007.16 1006.80 1004.34 1003.06 1002.39 1002.11 1001.37 1000.77 1000.14 999.38 998.61 997.94 997.42 997.11 996.40
1014.24 1013.61 1013.02 1012.47 1012.01 1011.64 1011.30 1011.05 1010.05 1008.90 1007.55 1007.61 1006.57 1005.98 1005.51 1002.96 1001.58 1001.12 1000.73 999.55 999.16 998.39 997.77 997.02 996.29 995.91 995.17
1013.92 1013.22 1012.65 1012.07 1011.49 1011.02 1010.51 1010.11 1009.43 1008.45 1007.00 1006.92 1005.84 1005.25 1004.19 1002.84 1001.08 999.92 999.35 998.70 998.12 997.15 996.48 995.76 995.07 994.28 993.71
1013.59 1012.88 1012.39 1011.70 1011.02 1010.40 1009.61 1008.95 1008.10 1007.12 1006.19 1005.53 1005.04 1004.16 1003.48 1002.17 1000.69 999.47 998.15 997.24 996.66 996.04 995.34 994.63 993.67 992.96 992.18
1013.42 1012.63 1011.93 1011.24 1010.52 1009.89 1009.10 1008.13 1007.28 1005.69 1004.81 1004.27 1003.68 1003.13 1002.08 1001.22 1000.23 998.53 997.56 996.79 995.44 994.69 993.92 992.98 992.00 991.41 990.79
1013.24 1012.44 1011.60 1010.84 1009.95 1009.16 1008.42 1007.38 1006.54 1005.17 1003.96 1002.95 1002.31 1001.70 1000.89 1000.20 998.95 997.44 996.29 995.42 994.48 993.55 992.94 991.83 990.44 990.02 989.12
1012.90 1012.17 1011.28 1010.40 1009.45 1008.35 1007.60 1006.85 1005.76 1004.53 1003.50 1002.27 1001.37 1000.25 998.90 998.14 997.55 996.26 995.10 994.24 993.13 992.45 991.61 990.64 988.96 988.03 987.44
1012.54 1011.68 1010.80 1009.83 1008.82 1007.81 1006.83 1006.01 1004.86 1003.84 1002.70 1001.66 1000.67 999.71 998.15 996.22 995.20 994.83 994.23 993.09 992.13 991.09 990.09 989.20 987.89 986.56 986.02
Thickness
5427 5421 5416 5410 5406 5400 5395 5388 5380 5370 5359 5351 5342 5336 5333 5330 5329 5329 5327 5328 5330 5331 5333 5337 5339 5342 5346
5410 5404 5396 5390 5386 5379 5372 5361 5350 5340 5329 5319 5313 5312 5310 5312 5314 5317 5320 5323 5325 5325 5326 5329 5333 5336 5338
5391 5382 5375 5366 5364 5356 5347 5336 5322 5311 5303 5298 5300 5300 5302 5305 5308 5313 5317 5318 5319 5321 5323 5324 5327 5328 5329
5369 5362 5353 5347 5335 5328 5325 5309 5302 5295 5293 5292 5295 5296 5297 5300 5302 5305 5309 5311 5314 5317 5320 5321 5321 5321 5321
5354 5347 5334 5323 5311 5304 5300 5298 5293 5288 5294 5291 5290 5291 5292 5295 5297 5301 5303 5307 5311 5313 5315 5317 5318 5317 5315
5335 5323 5314 5299 5292 5289 5287 5287 5296 5279 5282 5290 5281 5290 5288 5290 5293 5300 5303 5305 5308 5309 5310 5311 5312 5313 5313
5312 5300 5296 5285 5283 5282 5279 5280 5278 5276 5271 5283 5282 5286 5285 5288 5288 5296 5299 5301 5304 5306 5308 5309 5311 5312 5312
5291 5287 5282 5280 5276 5275 5273 5273 5273 5267 5260 5271 5279 5282 5283 5283 5282 5291 5293 5298 5302 5305 5307 5308 5311 5313 5314
5279 5277 5275 5271 5268 5267 5262 5259 5264 5262 5250 5256 5264 5270 5275 5281 5278 5284 5288 5293 5295 5300 5303 5307 5309 5312 5315
5273 5268 5266 5263 5259 5254 5252 5248 5247 5256 5247 5246 5249 5248 5271 5276 5274 5274 5282 5285 5290 5296 5301 5304 5305 5305 5309
5267 5265 5262 5259 5255 5250 5244 5238 5241 5243 5243 5239 5244 5243 5241 5265 5273 5270 5274 5285 5289 5294 5297 5301 5303 5302 5306
5263 5261 5258 5254 5249 5245 5240 5235 5232 5234 5241 5233 5238 5237 5242 5252 5266 5273 5274 5281 5287 5294 5298 5302 5303 5303 5303
5258 5255 5250 5246 5242 5239 5237 5235 5235 5234 5236 5237 5235 5237 5238 5247 5259 5267 5278 5284 5289 5295 5298 5301 5305 5305 5307
5253 5250 5245 5240 5235 5232 5232 5233 5234 5241 5238 5237 5237 5237 5242 5246 5252 5267 5275 5281 5292 5296 5300 5305 5306 5307 5310
5246 5243 5238 5233 5230 5227 5226 5229 5230 5237 5242 5243 5241 5241 5244 5246 5257 5269 5280 5287 5294 5299 5299 5304 5309 5310 5315
5240 5235 5232 5228 5227 5228 5225 5223 5227 5232 5237 5243 5246 5250 5257 5259 5264 5274 5285 5291 5298 5300 5301 5304 5314 5319 5321
5237 5232 5228 5227 5226 5224 5224 5223 5227 5231 5236 5241 5246 5251 5262 5274 5281 5285 5288 5295 5300 5304 5307 5310 5318 5326 5325